Location: Graswijk
(52.9667°N, 6.5500°E)
Time: 05:37:06
(UTC+00:00)

Meteor 1-11 Rocket - Pass Details

Date: 15 May 2026
Orbit: 829 x 915 km, 81.2° (Epoch: 6 June)

Event Time Altitude Azimuth Distance (km) Brightness Sun altitude
Rises 22:59:16 0° 345° (NNW) 3,463 8.6 -17.7°
Reaches altitude 10° 23:01:44 10° 345° (NNW) 2,509 7.4 -17.7°
Maximum altitude 23:07:25 79° 260° (W) 867 3.7 -17.8°
Enters shadow 23:10:12 31° 177° (S) 1,440 4.3 -17.9°
